Regional Weather Roundup
Issued by NWS State College, PA

Home | Current Version | Previous Version | Text Only | Print | Product List | Glossary On
Versions: 1 2 3 4 5 6 7 8 9 10 11 12 13 14 15 16 17 18 19 20 21 22 23 24 25 26 27 28 29 30 31 32 33 34 35 36 37 38 39 40 41 42 43 44 45 46 47 48 49 50
000
ASUS41 KCTP 300303
RWRCTP

REGIONAL WEATHER ROUNDUP
NATIONAL WEATHER SERVICE STATE COLLEGE PA
1100 PM EDT FRI AUG 29 2014

Note: "fair" indicates few or no clouds below 12,000 feet with no
significant weather and/or obstructions to visibility.

* = STATION THAT DOES NOT REPORT PRECIPITATION /E.G. RAIN...SNOW...ETC/
    THUNDER OR FOG.

PAZ002>004-007>009-013>016-020>023-029>032-300400-
WESTERN PENNSYLVANIA

CITY           SKY/WX    TMP DP  RH WIND       PRES   REMARKS
ERIE           CLEAR     67  54  63 S8        30.09S
MEADVILLE      CLEAR     67  52  58 CALM      30.13S
FRANKLIN*      CLEAR     63  54  72 SE8       30.16S
NEW CASTLE     FAIR      61  59  93 CALM      30.13S
BEAVER COUNTY  NOT AVBL
BUTLER*        CLEAR     61  54  77 NE5       30.14F
PITTSBURGH INT PTCLDY    68  55  63 CALM      30.12S
PITTSBURGH     CLEAR     68  54  60 E6        30.12S
INDIANA*       CLEAR     68  55  64 VRB7G16   30.20S
LATROBE        CLEAR     70  57  64 E7        30.14F
WASHINGTON CO* CLEAR     57  55  94 CALM      30.13S
$$

PAZ004>006-010>012-017>019-024>028-033>037-041-042-045-046-049>053-300400-
CENTRAL PENNSYLVANIA

CITY           SKY/WX    TMP DP  RH WIND       PRES   REMARKS
BRADFORD       CLEAR     56  51  84 SE3       30.19S
DUBOIS         CLEAR     61  52  72 SE8       30.18S
CLEARFIELD     CLEAR     56  53  90 N6        30.20S
JOHNSTOWN      CLEAR     62  52  69 SE9       30.21R
ALTOONA        CLEAR     61  55  81 CALM      30.21S
STATE COLLEGE  CLEAR     60  54  80 CALM      30.20F
WILLIAMSPORT   PTCLDY    61  55  81 CALM      30.19S
SELINSGROVE    CLEAR     55  53  93 CALM      30.21S
FT INDIANTOWN  CLEAR     58  58  99 CALM      30.23R
CAPITAL CITY   CLEAR     64  54  69 E7        30.21R
HARRISBURG     PTCLDY    66  54  65 E5        30.21R
YORK           CLEAR     65  54  67 S5        30.22R
$$

PAZ038>040-043-044-047-048-054-055-060>062-067>071-300400-
EASTERN PENNSYLVANIA

CITY           SKY/WX    TMP DP  RH WIND       PRES   REMARKS
SCRANTON       CLEAR     64  54  69 CALM      30.22S
MOUNT POCONO   CLEAR     58  53  84 SE6       30.27R
ALLENTOWN      CLEAR     67  57  70 S7        30.24R
QUAKERTOWN*    CLEAR     64  57  77 MISG      30.25R
READING        CLEAR     61  56  83 CALM      30.22R
LANCASTER      CLEAR     58  54  86 SE5       30.23R
COATESVILLE    CLEAR     61  59  94 SE3       30.25R
POTTSTOWN      CLEAR     65  58  78 CALM      30.26R
BLUE BELL      CLEAR     61  59  94 CALM      30.24R
DOYLESTOWN     CLEAR     60  57  89 CALM      30.24R
WILLOW GROVE   NOT AVBL
NORTH PHILA    CLEAR     67  56  67 CALM      30.26R
PHILADELPHIA   PTCLDY    67  58  72 SE6       30.24R
$$



USA.gov is the U.S. government's official web portal to all federal, state and local government web resources and services.